Погода в Пестово

Россия / Новгородская область     58°27′56″N   33°15′53″E
темп.,
°C
ветер,
м/с
пор.,
м/с
влажн.,
%
обл.,
%
осадки,
мм/ч
давл.,
гПа
погр.,
м
29 ноября, пн
пн2900:00−4юв0096100 0.1 100746
03:00−4всв2497100 0.1 1007186
06:00−4всв379798 0.1 1006303
09:00−5св3996100 0.1 1006281
12:00−3всв41294100 0.4 1004373
15:00−3всв51296100 1.7 1000432
18:00−3в51395100 4.0 997509
21:00−1в51497100 4.3 992507
30 ноября, вт
вт3000:00+1в51498100 0.1 987552
03:00+2в51399100 0.1 982597
06:00+1всв41298100 0.3 977607
09:00+1св41199100 2.6 973577
12:000ссв3999100 4.9 970517
15:00−1ссз4798100 9.2 968422
18:00−3сз4996100 2.1 969567
21:00−3зсз51195100 3.9 971987
1 декабря, ср
ср100:00−5з61393100 1.1 975768
03:00−5з61291100 1.6 978943
06:00−6з61290100 0.3 981778
09:00−7з51291100 0.5 983694
12:00−6з51191100 0.3 985778
15:00−6з51092100 0.6 987816
18:00−6з5119187 0.3 988762
21:00−7з5119199 0.4 990619
2 декабря, чт
чт200:00−8зюз4119388 0.1 992506
03:00−10юз3109598 0.3 993291
06:00−13ююз2499100 0.0 99372
09:00−9ю1397100 0.1 99391
12:00−5юв1394100 0.1 993187
15:00−5в259677 0.3 992263
18:00−7в279990 0.1 992153
21:00−7всв2698100 0.1 992167
3 декабря, пт
пт300:00−6всв3796100 0.7 992242
03:00−5св3796100 1.9 993312
06:00−6св259784 0.7 995208
09:00−7св259779 0.9 998140
12:00−6всв2395100 0.3 1000172
15:00−5в2397100 0.4 1001152
18:00−6вюв1498100 0.3 100284
21:00−4юв1398100 0.4 1001117